Regional Weather Roundup
Issued by NWS

Home | Current Version | Previous Version | Text Only | Print | Product List | Glossary On
Versions: 1 2 3 4 5 6 7 8 9 10 11 12 13 14 15 16 17 18 19 20 21 22 23 24 25 26 27 28 29 30 31 32 33 34 35 36 37 38 39 40 41 42 43 44 45 46 47 48 49 50
000
ASUS44 KFWD 201715
RWRTX
NORTH TEXAS HOURLY WEATHER ROUNDUP
NATIONAL WEATHER SERVICE FORT WORTH TX
1100 AM CST SAT JAN 20 2018

NOTE: "FAIR" INDICATES FEW OR NO CLOUDS BELOW 12,000 FEET WITH NO
SIGNIFICANT WEATHER AND/OR OBSTRUCTIONS TO VISIBILITY.

TXZ118-119-201800-
DALLAS/FORT WORTH METROPLEX

CITY           SKY/WX    TMP DP  RH WIND       PRES   REMARKS
DFW AIRPORT    FAIR      65  52  62 S22       29.98F
DALLAS LOVE    PTSUNNY   62  51  67 S16G25    30.01F
FTW MEACHAM    FAIR      63  50  62 S18G26    29.99F
DAL-EXECUTIVE  CLOUDY    62  54  74 S15G24    30.01R
FTW-ALLIANCE   FAIR      62  49  62 S15G26    29.98S
FTW-NAS-JRB    FAIR      61  48  62 S22       30.00F
FTW-SPINKS     MOSUNNY   63  52  67 S15G26    30.02S
ARLINGTON      FAIR      61  52  72 S17G26    30.01S
GRAND PRAIRIE  MOSUNNY   61  50  67 S17G29    30.03S
ADDISON        PTSUNNY   61  52  72 S16G30    30.01F
MESQUITE       CLOUDY    59  54  82 MISG      30.04S
LANCASTER      CLOUDY    58  54  84 S16G28    30.05R
$$

TXZ091>094-102>105-117-120-121-131>134-201800-
NORTH CENTRAL TEXAS

CITY           SKY/WX    TMP DP  RH WIND       PRES   REMARKS
SHRMAN/DENISON FAIR      62  50  66 S25G36    29.98F
GAINESVILLE    FAIR      61  45  56 S24       29.98S
BOWIE          FAIR      60  44  57 S16G23    29.94S
BRIDGEPORT     FAIR      60  44  54 S12       29.98S
DECATUR        FAIR      60  44  56 S18G24    29.95S
DENTON         FAIR      62  49  62 S24       29.98F
MCKINNEY       CLOUDY    61  54  77 S23G31    30.00S
BONHAM         CLOUDY    58  53  80 S21G30    30.01S
GREENVILLE     CLOUDY    59  59 100 S14       30.04S
ROCKWALL       CLOUDY    58  56  92 MISG      30.03F
TERRELL        CLOUDY    56  54  93 S13       30.05S FOG
WAXAHACHIE     CLOUDY    58  56  91 S15       30.04S
CLEBURNE       FAIR      61  54  77 S15G21    30.03S
GRANBURY       FAIR      61  48  62 S17       30.02S
$$

TXZ083>090-098>101-113>116-127>130-139>142-154-155-201800-
WESTERN NORTH TEXAS

CITY           SKY/WX    TMP DP  RH WIND       PRES   REMARKS
WICHITA FALLS  FAIR      56  43  61 S21       29.89F
WF-KICKAPOO    FAIR      56  44  62 S12G24    29.92F
VERNON         FAIR      56  34  44 SW15G24   29.87S
ABILENE        FAIR      54  42  64 SW18      29.95S
ABILENE-DYESS  FAIR      60  40  47 S14       29.94S
GRAHAM           N/A     60  42  50 S17G26    29.93S
BRECKENRIDGE   FAIR      62  40  44 SW21G26   29.95S
CISCO          FAIR      59  41  51 S17G28    29.96S
EASTLAND       FAIR      59  42  53 S17       29.97S
RANGER         FAIR      59  43  55 SW17G23   29.97S
MINERAL WELLS  FAIR      60  43  53 S17       29.96F
STEPHENVILLE   FAIR      59  46  61 S14G23    30.01F
COMANCHE       FAIR      60  45  58 S17G26    29.99F
BROWNWOOD      FAIR      57  41  54 S12G18    30.01S
COLEMAN        FAIR      55  43  63 SW16      29.99S
$$

TXZ143>147-156>162-174-175-201800-
CENTRAL TEXAS

CITY           SKY/WX    TMP DP  RH WIND       PRES   REMARKS
WACO           CLOUDY    58  54  86 S12       30.05S
WACO-TSTC      PTSUNNY   59  55  88 S10G17    30.06S
WACO-MCGREGOR  CLOUDY    60  55  83 S20G25    30.05S
CORSICANA      CLOUDY    58  58 100 S10       30.07S
MEXIA          CLOUDY    57  56  97 S13G23    30.07R
HEARNE         CLOUDY    56  56 100 SE7       30.10F FOG
CAMERON        CLOUDY    58  56  94 S8        30.08F FOG
TEMPLE         CLOUDY    57  55  94 S15       30.06S
KILLEEN        PTSUNNY   63  54  72 S14       30.03S
KILLEEN-SKYLRK CLOUDY    63  55  75 S21       30.05S
FORT HOOD      CLOUDY    60  54  79 S13       30.00F
GATESVILLE     PTSUNNY   61  54  77 S10G21    30.05S
HAMILTON       FAIR      63  50  63 S17       30.02F
LAMPASAS       FAIR      62  52  67 SW10G16   30.02F
$$

TXZ095>097-106>112-122>126-135>138-148>153-164>167-201800-
EAST TEXAS

CITY           SKY/WX    TMP DP  RH WIND       PRES   REMARKS
PARIS          CLOUDY    55  54  96 SE14      30.05F FOG
SULPHUR SPRNGS CLOUDY    57  57  97 S13       30.07S FOG
MOUNT PLEASANT CLOUDY    55  53  91 SE9       30.10S
GILMER         CLOUDY    54  53  94 SE7       30.09S
MINEOLA        CLOUDY    55  55 100 S7        30.07S
TYLER          CLOUDY    58  55  90 S13G21    30.07F
LONGVIEW       CLOUDY    56  55  97 S7        30.10S
MARSHALL       CLOUDY    53  49  87 S7        30.13F
ATHENS         CLOUDY    54  54 100 S12       30.07S
PALESTINE      CLOUDY    56  56 100 SE7       30.11S FOG
JACKSONVILLE   FOG       55  55 100 S8        30.11S VSB 1/2
CENTER         CLOUDY    58  54  86 MISG      30.14S
NACOGDOCHES    CLOUDY    57  54  88 VRB5      30.13S
LUFKIN         CLOUDY    56  55  97 SE8       30.13S FOG
$$

SUPPLEMENTAL OBSERVATIONS (NWS FORT WORTH AREA)

CITY           SKY/WX    TMP DP  RH WIND       PRES   REMARKS
DENISON DAM      N/A     61  50  67 SW18        N/A
CADDO GRASSLND   N/A     57  54  88 S13         N/A
PAT MAYSE LAKE   N/A     55  54  94 SE10        N/A
GREENVILLE       N/A     57  54  88 S15         N/A
CEDAR HILL       N/A     61  52  72 S12G25      N/A
LBJ GRASSLAND    N/A     61  43  51 S15G23      N/A
POSSUM KINGDOM   N/A     63  41  45 S16G22      N/A
GRANBURY         N/A     61  46  59 S21         N/A
COMANCHE         N/A     61  43  51 S20G26      N/A
MCGREGOR         N/A     57  52  82 S18         N/A
TEMPLE           N/A     57  55  94 S13         N/A
LAKE LIMESTONE   N/A     57  55  94 S9          N/A
ATHENS           N/A     57  52  82 S14         N/A
$$

SUPPLEMENTAL OBSERVATIONS (NWS NORMAN AREA)

CITY           SKY/WX    TMP DP  RH WIND       PRES   REMARKS
GOODLETT         N/A     58  21  24 SW8       29.83S
ODELL            N/A     55  38  54 S14       29.87S
CROWELL          N/A     59  35  40 SW12      29.86S
KNOX CITY        N/A     59  34  38 SW21      29.88F
SEYMOUR          N/A     57  38  50 S18       29.89S
MILLERS CREEK    N/A     55  41  58 SW20G26     N/A
$$

SUPPLEMENTAL OBSERVATIONS (NWS SAN ANGELO AREA)

CITY           SKY/WX    TMP DP  RH WIND       PRES   REMARKS
WEINERT          N/A     57  38  48 SW23      29.89F
HASKELL          N/A     57  37  46 SW22G29   29.90S
THROCKMORTON     N/A     61  41  48 S13       29.92S
STAMFORD         N/A     59  40  49 SW16      29.93S
CLYDE            N/A     57  42  55 SW17      29.96S
HAMBY            N/A     57  41  54 S17         N/A
IVIE RESERVOIR   N/A     61  46  59 W5          N/A
COLORADO BEND    N/A     63  48  59 S13         N/A
$$

SUPPLEMENTAL OBSERVATIONS (NWS SHREVEPORT AREA)

CITY           SKY/WX    TMP DP  RH WIND       PRES   REMARKS
CLARKSVILLE      N/A     54  52  94 S9          N/A
TEXARKANA        N/A     55  48  76 SE6         N/A
LINDEN           N/A     57  52  82 S5          N/A
CADDO LAKE       N/A     57  52  82 S2          N/A
GILMER           N/A     55  52  88 S8          N/A
HENDERSON        N/A     57  52  82 S8          N/A
N SABINE NF      N/A     61  55  82 MISG        N/A
S SABINE NF      N/A     55  50  82 S2          N/A
$$

SUPPLEMENTAL OBSERVATIONS ARE A COLLECTION OF AUTOMATED INSTRUMENTS
THAT ARE MAINTAINED BY A VARIETY OF FEDERAL AND STATE AGENCIES.
CERTAIN ELEMENTS...SUCH AS HUMIDITY VALUES AND SUSTAINED WIND
SPEEDS...MAY BE APPROXIMATED.




USA.gov is the U.S. government's official web portal to all federal, state and local government web resources and services.